Weather History for Rhodes, Greece

Change the Weather History Date:

Tuesday, March 5, 2013

  Actual Average Record
Temperature  
Mean Temperature 58 °F -  
Max Temperature 61 °F 63 °F 68 °F (1999)
Min Temperature 55 °F 51 °F 46 °F (2004)
Degree Days  
Heating Degree Days 7    
Growing Degree Days 8 (Base 50)    
Moisture  
Dew Point 40 °F    
Average Humidity 51    
Maximum Humidity 67    
Minimum Humidity 21    
Precipitation  
Precipitation 0.00 in 0.09 in - ()
Sea Level Pressure  
Sea Level Pressure 30.10 in    
Wind  
Wind Speed 12 mph ()    
Max Wind Speed 18 mph    
Max Gust Speed -    
Visibility 6.1 miles    
Events      
Averages and records for this station are not official NWS values.
T = Trace of Precipitation, MM = Missing Value Source: Averaged Metar Reports

Daily Weather History Graph

Daily Weather History Graph

Search for Another Location

Airport:

Trip Planner

Search our weather history database for the weather conditions in past years. The results will help you decide how hot, cold, wet, or windy it might be!

Date:

Astronomy

Mar. 05, 2013 Rise Set
Actual Time 6:32 AM EET 6:06 PM EET
Civil Twilight 6:07 AM EET 6:31 PM EET
Nautical Twilight 5:37 AM EET 7:01 PM EET
Astronomical Twilight 5:07 AM EET 7:31 PM EET
Moon 1:17 AM EET (3/5) 11:33 AM EET (3/5)
Length of Visible Light 12h 24m
Length of Day
11h 33m
Last Quarter, 44% of the Moon is Illuminated
Mar 5
Last Quarter
Mar 11
New
Mar 19
First Quarter
Mar 27
Full
Apr 3
Last Quarter

Hourly Weather History & Observations

Time (EET) Temp. Dew Point Humidity Pressure Visibility Wind Dir Wind Speed Gust Speed Precip Events Conditions
12:20 AM 57.2 °F 44.6 °F 63% 30.01 in 6.2 mi West 10.4 mph - N/A   Partly Cloudy
12:50 AM 57.2 °F 44.6 °F 63% 30.01 in 6.2 mi WNW 9.2 mph - N/A   Partly Cloudy
1:20 AM 57.2 °F 44.6 °F 63% 30.01 in 6.2 mi West 12.7 mph - N/A   Partly Cloudy
1:50 AM 57.2 °F 39.2 °F 51% 30.01 in 6.2 mi West 9.2 mph - N/A   Partly Cloudy
2:00 AM 56 °F 39 °F 42% 30.02 in 6 mi West 9.2 mph - -   Scattered Clouds
2:20 AM 57.2 °F 39.2 °F 51% 30.01 in 6.2 mi NW 11.5 mph - N/A   Partly Cloudy
2:50 AM 55.4 °F 39.2 °F 54% 30.01 in 6.2 mi WNW 12.7 mph - N/A   Partly Cloudy
3:20 AM 55.4 °F 39.2 °F 54% 30.01 in 6.2 mi WNW 12.7 mph - N/A   Partly Cloudy
3:50 AM 55.4 °F 39.2 °F 54% 30.04 in 6.2 mi WNW 16.1 mph - N/A   Partly Cloudy
4:20 AM 55.4 °F 39.2 °F 54% 30.04 in 6.2 mi WNW 16.1 mph - N/A   Partly Cloudy
4:50 AM 55.4 °F 39.2 °F 54% 30.04 in 6.2 mi WNW 13.8 mph - N/A   Partly Cloudy
5:20 AM 55.4 °F 39.2 °F 54% 30.04 in 6.2 mi WNW 13.8 mph - N/A   Partly Cloudy
5:50 AM 55.4 °F 39.2 °F 54% 30.04 in 6.2 mi NW 11.5 mph - N/A   Partly Cloudy
6:20 AM 55.4 °F 39.2 °F 54% 30.04 in - WNW 12.7 mph - N/A   Clear
6:50 AM 55.4 °F 39.2 °F 54% 30.06 in - WNW 13.8 mph - N/A   Clear
7:20 AM 55.4 °F 39.2 °F 54% 30.06 in - WNW 13.8 mph - N/A   Clear
7:50 AM 57.2 °F 44.6 °F 63% 30.06 in - WNW 15.0 mph - N/A   Clear
8:00 AM 56 °F 45 °F 56% 30.09 in 6 mi WNW 15.0 mph - -  
8:20 AM 57.2 °F 44.6 °F 63% 30.06 in - WNW 15.0 mph - N/A   Clear
8:50 AM 57.2 °F 46.4 °F 67% 30.09 in - WNW 13.8 mph - N/A   Clear
9:20 AM 57.2 °F 46.4 °F 67% 30.09 in - WNW 13.8 mph - N/A   Clear
9:50 AM 57.2 °F 42.8 °F 59% 30.09 in - West 13.8 mph - N/A   Clear
10:20 AM 57.2 °F 42.8 °F 59% 30.09 in - West 13.8 mph - N/A   Clear
10:50 AM 59.0 °F 44.6 °F 59% 30.12 in - West 13.8 mph - N/A   Clear
11:20 AM 59.0 °F 44.6 °F 59% 30.12 in - West 13.8 mph - N/A   Clear
11:50 AM 60.8 °F 42.8 °F 52% 30.12 in - West 13.8 mph - N/A   Clear
12:20 PM 60.8 °F 42.8 °F 52% 30.12 in - West 13.8 mph - N/A   Clear
12:50 PM 60.8 °F 44.6 °F 55% 30.12 in - WNW 11.5 mph - N/A   Clear
1:20 PM 60.8 °F 44.6 °F 55% 30.12 in - WNW 15.0 mph - N/A   Clear
1:50 PM 60.8 °F 44.6 °F 55% 30.12 in - West 18.4 mph - N/A   Clear
2:00 PM 61 °F 44 °F 42% 30.12 in 6 mi West 18.4 mph - -  
2:20 PM 60.8 °F 44.6 °F 55% 30.12 in - WNW 15.0 mph - N/A   Clear
2:50 PM 62.6 °F 42.8 °F 48% 30.12 in - West 16.1 mph - N/A   Clear
3:20 PM 62.6 °F 42.8 °F 48% 30.12 in - West 16.1 mph - N/A   Clear
3:50 PM 62.6 °F 42.8 °F 48% 30.12 in - West 15.0 mph - N/A   Clear
4:20 PM 62.6 °F 42.8 °F 48% 30.12 in - West 12.7 mph - N/A   Clear
4:50 PM 60.8 °F 42.8 °F 52% 30.12 in - WNW 12.7 mph - N/A   Clear
5:20 PM 60.8 °F 42.8 °F 52% 30.12 in - WNW 13.8 mph - N/A   Clear
5:50 PM 60.8 °F 44.6 °F 55% 30.12 in - West 13.8 mph - N/A   Clear
6:20 PM 60.8 °F 44.6 °F 55% 30.12 in - NW 11.5 mph - N/A   Clear
6:50 PM 60.8 °F 44.6 °F 55% 30.15 in - NW 10.4 mph - N/A   Clear
7:20 PM 60.8 °F 44.6 °F 55% 30.15 in - North 11.5 mph - N/A   Clear
7:50 PM 60.8 °F 30.2 °F 31% 30.15 in - North 10.4 mph - N/A   Clear
8:00 PM 60 °F 31 °F 21% 30.18 in 6 mi North 10.4 mph - -  
8:20 PM 60.8 °F 30.2 °F 31% 30.15 in - North 10.4 mph - N/A   Clear
8:50 PM 59.0 °F 33.8 °F 39% 30.18 in - NNE 12.7 mph - N/A   Clear
9:20 PM 59.0 °F 33.8 °F 39% 30.18 in - NNE 12.7 mph - N/A   Clear
9:50 PM 57.2 °F 32.0 °F 38% 30.18 in - NNE 13.8 mph - N/A   Clear
10:20 PM 57.2 °F 32.0 °F 38% 30.18 in - NNE 13.8 mph - N/A   Clear
10:50 PM 57.2 °F 28.4 °F 33% 30.21 in - NNE 10.4 mph - N/A   Clear
11:20 PM 57.2 °F 28.4 °F 33% 30.21 in - NNE 10.4 mph - N/A   Clear
11:50 PM 55.4 °F 28.4 °F 36% 30.21 in - NNE 9.2 mph - N/A   Clear